HST 1 20580U 90037B 25184.66376620 .00004961 00000-0 18230-3 0 9997 2 20580 28.4685 293.2213 0001704 277.9163 82.1238 15.25467891735208 ISS (ZARYA) 1 25544U 98067A 25185.15256655 .00005556 00000-0 10394-3 0 9997 2 25544 51.6344 222.9877 0002427 330.6237 29.4615 15.50365120517795 CXO 1 25867U 99040B 25187.94879861 .00000511 00000-0 00000-0 0 9992 2 25867 49.8968 128.8299 8389427 309.7726 0.2851 0.37803341 16011